User: anonymous   Login
Location: Edinburgh
(55.9500°N, 3.1600°W)
Time: 09:53:31
(UTC+01:00)
Language:

Hubble Space Telescope - Orbit

View from above orbital plane
View from above orbital plane
View from above satellite
View from above satellite

Ground track
Ground track

The orbit data is extracted from the following two-line orbital elements,

1 20580U 90037B   18169.96794698 +.00000362 +00000-0 +11163-4 0  9994
2 20580 028.4694 103.3332 0002858 155.9206 288.5069 15.09052581345653
Epoch (UTC): 18 June 2018 23:13:50
Eccentricity: 0.0002858
inclination: 28.4694°
perigee height: 537 km
apogee height: 541 km
right ascension of ascending node: 103.3332°
argument of perigee: 155.9206°
revolutions per day: 15.09052581
mean anomaly at epoch: 288.5069°
orbit number at epoch: 34565

The dashed part of the orbit path shows where the satellite is in the earth's shadow,  

DLR